sat.trackr.live / text

‹ back to catalog

STARLINK-32797

NORAD 62843 · 2025-019Q

PAYLOAD ACTIVE UNKNOWN

§ Identity

Operator
Country
US
Launch date
2025-01-27
Launch site
AFETR
Launch vehicle
Mass (kg)
RCS (m²)

Purposes: comms

External: N2YO · Heavens-Above · Gunter

§ Orbital elements

Epoch: 2026-05-25T00:12:00.508608Z

Period
94.27 min
Inclination
43.0015°
Eccentricity
0.0001348
Mean motion
15.27591787 rev/d
Perigee alt
482.1 km
Apogee alt
483.9 km
Semi-major
6,861.2 km
B*
5.5035e-4
RAAN
17.9106°
Arg perigee
266.0076°
Mean anomaly
94.0622°
Rev number
7,392

§ Raw data

STARLINK-327971 62843U 25019Q   26145.00833922  .00014918  00000+0  55035-3 0  99982 62843  43.0015  17.9106 0001348 266.0076  94.0622 15.27591787 73921

JSON: /api/v1/satellites/62843 · /tle

For live sub-satellite position, see the globe view (requires WebGL).

§ Visibility from observer

Set your observer location to see the next 7 days of passes ≥ 10°. The values pass through the URL so the page stays shareable.

No JS? Fill the form by hand. The geolocation button needs JavaScript.